Location: Madrid
(40.4000°N, 3.6830°W)
Time: 12:31:35
(UTC+01:00)

ISS - Pass Details

Date: 27 October 2020
Orbit: 417 x 420 km, 51.6° (Epoch: 29 October)

Event Time Altitude Azimuth Distance (km) Brightness Sun altitude
Exits shadow 05:54:40 38° 4° (N) 654 -2.8 -20.5°
Drops below altitude 10° 05:57:14 10° 43° (NE) 1,497 -0.4 -20.0°
Sets 05:59:23 0° 50° (NE) 2,363 0.8 -19.6°
